Imperial, CA

1:49 AM PDT on October 17, 2017 (GMT -0700)
Imperial County

Weather History for KIPL - July, 2012

Change the Weather History Date:

Tuesday, July 24, 2012

  Actual Average Record
Temperature  
Mean Temperature 96 °F -  
Max Temperature 111 °F 106 °F 117 °F (2014)
Min Temperature 84 °F 78 °F 64 °F (2001)
Cooling Degree Days 32    
Growing Degree Days 46 (Base 50)    
Moisture  
Dew Point 40 °F    
Average Humidity 17    
Maximum Humidity 40    
Minimum Humidity 8    
Precipitation  
Precipitation 0.00 in - - ()
Sea Level Pressure  
Sea Level Pressure 29.76 in    
Wind  
Wind Speed 8 mph (WSW)    
Max Wind Speed 16 mph    
Max Gust Speed -    
Visibility 10 miles    
Events      
Averages and records for this station are not official NWS values.
T = Trace of Precipitation, MM = Missing Value Source: NWS Daily Summary

Daily Weather History Graph

Daily Weather History Graph

Search for Another Location

Airport or City:

Trip Planner

Search our weather history database for the weather conditions in past years. The results will help you decide how hot, cold, wet, or windy it might be!

Date:

Astronomy

Jul. 24, 2012 Rise Set
Actual Time 5:51 AM PDT 7:46 PM PDT
Civil Twilight 5:23 AM PDT 8:13 PM PDT
Nautical Twilight 4:50 AM PDT 8:46 PM PDT
Astronomical Twilight 4:15 AM PDT 9:22 PM PDT
Moon 11:29 AM PDT (7/24) 11:02 PM PDT (7/24)
Length of Visible Light 14h 49m
Length of Day
13h 55m
Waxing Crescent, 32% of the Moon is Illuminated
Jul 24
Waxing Crescent
Jul 26
First Quarter
Aug 1
Full
Aug 9
Last Quarter
Aug 17
New

Hourly Weather History & Observations

Time (PDT) Temp. Heat Index Dew Point Humidity Pressure Visibility Wind Dir Wind Speed Gust Speed Precip Events Conditions
12:53 AM 89.1 °F - 42.1 °F 19% 29.78 in 10.0 mi West 9.2 mph - N/A   Clear
1:53 AM 86.0 °F - 43.0 °F 22% 29.77 in 10.0 mi West 8.1 mph - N/A   Clear
2:53 AM 86.0 °F - 39.9 °F 20% 29.77 in 10.0 mi West 9.2 mph - N/A   Clear
3:53 AM 86.0 °F - 39.0 °F 19% 29.77 in 10.0 mi West 6.9 mph - N/A   Clear
4:53 AM 84.0 °F - 43.0 °F 24% 29.78 in 10.0 mi Calm Calm - N/A   Clear
5:53 AM 84.0 °F - 43.0 °F 24% 29.78 in 10.0 mi Calm Calm - N/A   Clear
6:53 AM 84.0 °F 83.3 °F 57.0 °F 40% 29.80 in 10.0 mi SSW 4.6 mph - N/A   Clear
7:53 AM 90.0 °F - 50.0 °F 25% 29.82 in 10.0 mi ESE 5.8 mph - N/A   Clear
8:53 AM 93.9 °F 92.6 °F 57.0 °F 29% 29.82 in 10.0 mi SSE 5.8 mph - N/A   Clear
9:53 AM 97.0 °F 94.6 °F 53.1 °F 23% 29.82 in 10.0 mi Variable 3.5 mph - N/A   Clear
10:53 AM 100.9 °F - 32.0 °F 9% 29.82 in 10.0 mi SW 6.9 mph - N/A   Clear
11:53 AM 102.9 °F - 30.0 °F 8% 29.81 in 10.0 mi Variable 4.6 mph - N/A   Clear
12:53 PM 106.0 °F - 39.9 °F 11% 29.78 in 10.0 mi Variable 4.6 mph - N/A   Partly Cloudy
1:53 PM 107.1 °F - 42.1 °F 11% 29.75 in 10.0 mi Variable 5.8 mph - N/A   Mostly Cloudy
2:53 PM 109.0 °F - 37.9 °F 9% 29.73 in 10.0 mi SSE 4.6 mph - N/A   Mostly Cloudy
3:53 PM 109.0 °F - 35.1 °F 8% 29.70 in 10.0 mi SW 5.8 mph - N/A   Overcast
4:53 PM 109.9 °F - 37.0 °F 8% 29.69 in 10.0 mi WSW 15.0 mph - N/A   Mostly Cloudy
5:53 PM 104.0 °F - 43.0 °F 13% 29.69 in 10.0 mi WSW 15.0 mph - N/A   Mostly Cloudy
6:53 PM 99.0 °F - 35.1 °F 11% 29.70 in 8.0 mi West 16.1 mph - N/A   Mostly Cloudy
7:53 PM 96.1 °F - 36.0 °F 12% 29.71 in 10.0 mi West 15.0 mph - N/A   Clear
8:53 PM 93.9 °F - 33.1 °F 12% 29.72 in 10.0 mi WSW 15.0 mph - N/A   Clear
9:53 PM 91.0 °F - 33.1 °F 13% 29.75 in 10.0 mi West 11.5 mph - N/A   Clear
10:53 PM 89.1 °F - 32.0 °F 13% 29.77 in 10.0 mi West 12.7 mph - N/A   Clear
11:53 PM 84.0 °F - 36.0 °F 18% 29.77 in 10.0 mi West 11.5 mph - N/A   Clear